SCP
1 1 1 0 0 0 0 0 0 0 0 0 0 0 0 0 0 0 0 0 0 0 0 0 0 0 0 0 0 1 1 1 1 1 1 1 1 1 1 1 1 1 1
1 1 1 0 0 0 0 0 0 0 0 0 0 0 0 0 0 0 0 0 0 0 0 0 0 0 0 0 0 1 1 1 1 1 1 1 1 1 1 1 1 1 1
1 1 1 0 0 0 0 0 0 0 0 0 0 0 0 0 0 0 0 0 0 0 0 0 0 0 0 0 0 0 1 1 1 1 1 1 1 1 1 1 1 1 1
1 1 1 1 0 0 0 0 0 0 0 0 0 0 0 0 0 0 0 0 0 0 0 0 0 0 0 0 0 0 0 0 0 0 1 1 1 1 1 1 1 1 1
1 1 1 1 1 1 1 0 0 0 0 0 0 0 0 0 0 0 0 0 0 0 0 0 0 0 0 0 0 0 0 0 0 0 0 1 1 1 1 1 1 1 1
1 1 1 1 1 1 1 1 0 0 0 0 0 0 0 0 0 0 0 0 0 0 0 0 0 0 0 0 0 0 0 0 0 0 0 0 1 1 1 1 1 1 1
1 1 1 1 1 1 1 1 1 0 0 0 0 0 0 0 0 0 0 0 0 0 0 0 0 0 0 0 0 0 0 0 0 0 0 0 0 0 0 1 1 1 1
1 1 1 1 1 1 1 1 1 1 0 0 0 0 0 0 0 0 0 0 0 0 0 0 0 0 0 0 0 0 0 0 0 0 0 0 0 0 0 0 0 0 0
1 1 1 1 1 1 1 1 1 1 0 0 0 0 0 0 0 0 0 0 0 0 0 0 0 0 0 0 0 0 0 0 0 0 0 0 0 0 0 0 0 0 0
0 0 1 1 1 1 1 1 1 1 1 0 0 0 0 0 0 0 0 0 0 0 0 0 0 0 0 0 0 0 0 0 0 0 0 0 0 0 0 0 0 0 0
0 0 0 0 0 1 1 1 1 1 1 0 0 0 0 0 0 0 0 0 0 0 0 0 0 0 0 0 0 0 0 0 0 0 0 0 0 0 0 0 0 0 0
0 0 0 0 0 0 1 1 1 1 1 0 0 0 0 0 0 0 0 0 0 0 0 0 0 0 0 0 0 0 0 0 0 0 0 0 0 0 0 0 0 0 0
0 0 0 0 0 0 0 0 0 0 0 0 0 0 0 0 0 0 0 0 0 0 0 0 0 0 0 0 0 0 0 0 0 0 0 0 0 0 0 0 0 0 0
0 0 0 0 0 0 0 0 0 0 0 0 0 0 0 0 0 0 0 0 0 0 0 0 0 0 0 0 0 0 0 0 0 0 0 0 0 0 0 0 0 0 0
0 0 0 0 0 0 0 0 0 0 0 0 0 0 0 0 0 0 0 0 0 0 0 0 0 0 0 0 0 0 0 0 0 0 0 0 0 0 0 0 0 0 0
0 0 0 0 0 0 0 0 0 0 0 0 0 0 0 0 0 0 0 0 0 0 0 0 0 0 0 0 0 0 0 0 0 0 0 0 0 0 0 0 0 0 0
0 0 0 0 0 0 0 0 0 0 0 0 0 0 0 0 0 0 0 0 0 0 0 0 0 0 0 0 0 0 0 0 0 0 0 0 0 0 0 0 0 0 0
0 0 0 0 0 0 0 0 0 0 0 0 0 0 0 0 0 0 0 0 0 0 0 0 0 0 0 0 0 0 0 0 0 0 0 0 0 0 0 0 0 0 0
0 0 0 0 0 0 0 0 0 0 0 0 0 0 0 0 0 0 0 0 0 0 0 0 0 0 0 0 0 0 0 0 0 0 0 0 0 0 0 0 0 0 0
0 0 0 0 0 0 0 0 0 0 0 0 0 0 0 0 0 0 0 0 0 0 0 0 0 0 0 0 0 0 0 0 0 0 0 0 0 0 0 0 0 0 0
0 0 0 0 0 0 0 0 0 0 0 0 0 0 0 0 0 0 0 0 0 0 0 0 0 0 0 0 0 0 0 0 0 0 0 0 0 0 0 0 0 0 0
0 0 0 0 0 0 0 0 0 0 0 0 0 0 0 0 0 0 0 0 0 0 0 0 0 0 0 0 0 0 0 0 0 0 0 0 0 0 0 0 0 0 0
0 0 0 0 0 0 0 0 0 0 0 0 0 0 0 0 0 0 0 0 0 0 0 0 0 0 0 0 0 0 0 0 0 0 0 0 0 0 0 0 0 0 0
0 0 0 0 0 0 0 0 0 0 0 0 0 0 0 0 0 0 0 0 0 0 0 0 0 0 0 0 0 0 0 0 0 0 0 0 0 0 0 0 0 0 0
0 0 0 0 0 0 0 0 0 0 0 0 0 0 0 0 0 0 0 0 0 0 0 0 0 0 0 0 0 0 0 0 0 0 0 0 0 0 0 0 0 0 0
0 0 0 0 0 0 0 0 0 0 0 0 0 0 0 0 0 0 0 0 0 0 0 0 0 0 0 0 0 0 0 0 0 0 0 0 0 0 0 0 0 0 0
Wind_Speed
3 2 2 2 3 2 3 3 3 3 5 5 5 6 6 6 6 6 3 5 5 6 8 8 9 9 9 9 10 9 9 10 10 10 11 11 12 12 12 13 13 13 13
2 2 3 2 3 3 2 3 3 4 4 4 5 5 6 6 5 6 6 4 7 7 8 8 9 9 9 9 10 9 9 10 10 11 11 11 12 12 13 13 13 14 14
2 3 2 3 2 2 3 4 4 4 4 5 6 6 6 6 6 6 7 6 5 8 9 8 8 9 10 10 10 10 10 10 10 11 11 11 11 12 12 13 13 14 14
3 3 3 2 2 3 3 3 4 4 4 5 5 5 5 5 7 7 7 7 6 5 7 8 7 8 9 9 9 10 10 10 10 10 11 11 11 12 12 12 13 13 14
3 4 3 2 4 4 4 4 3 4 5 5 6 5 6 6 5 7 7 7 7 7 6 5 8 9 9 9 9 10 10 10 10 10 10 11 11 11 11 12 13 13 14
4 4 3 3 4 4 4 3 4 4 5 5 7 5 6 6 6 5 7 6 6 7 7 6 6 7 10 9 9 10 10 10 10 10 10 10 10 9 10 11 12 13 13
4 5 4 3 4 4 4 5 5 5 5 4 6 5 6 6 6 5 5 5 5 6 6 6 6 5 4 9 10 9 10 10 10 10 10 9 9 9 10 11 11 12 13
5 5 4 4 4 4 5 5 5 5 5 4 5 5 5 5 5 5 4 5 5 5 6 6 5 5 5 4 5 8 9 9 10 10 10 9 9 10 10 11 11 11 13
5 5 5 5 4 5 4 5 5 6 6 5 4 5 5 5 4 4 5 5 5 5 6 6 6 6 6 5 5 7 8 8 9 10 10 10 10 10 11 11 11 12 13
5 4 5 5 5 5 5 6 5 6 7 6 4 5 6 6 6 5 4 5 6 6 6 6 6 6 7 6 5 5 7 7 8 9 10 11 11 11 11 12 12 12 13
4 5 5 4 5 5 5 5 5 6 6 6 5 5 6 5 7 7 7 5 5 5 5 6 5 6 6 6 6 6 6 7 7 8 9 10 11 12 11 11 12 13 13
3 4 4 4 5 4 4 4 5 6 5 6 6 6 6 6 6 6 8 8 7 5 5 5 6 6 6 6 7 4 6 7 7 7 8 9 10 11 11 11 13 14 14
2 2 3 4 4 4 4 4 4 5 5 6 6 5 6 6 6 6 8 8 8 6 6 5 5 5 6 5 4 5 8 8 8 8 8 8 9 10 10 11 11 13 13
2 2 3 3 4 4 4 4 4 4 4 5 6 6 5 6 5 5 6 7 8 7 6 6 4 5 5 5 4 6 7 9 9 8 8 8 9 9 9 10 10 10 11
2 2 3 3 3 4 4 4 4 4 4 5 5 5 5 5 5 5 5 6 7 8 7 5 5 4 5 5 3 6 7 6 8 9 9 9 9 9 10 9 9 8 8
2 3 3 3 3 4 4 4 4 3 4 5 4 5 6 6 5 5 6 6 6 7 8 6 6 6 5 6 5 7 8 7 10 11 10 10 10 10 10 10 10 9 9
2 3 3 3 4 4 4 4 4 4 5 5 5 6 6 7 6 6 6 6 6 6 8 8 7 6 6 7 5 7 7 7 7 10 11 10 10 10 10 10 10 10 10
3 3 3 3 4 4 4 4 5 4 5 5 6 6 7 6 6 6 5 6 6 7 8 9 7 6 7 7 6 7 7 7 6 6 10 11 11 11 11 10 10 10 10
2 3 3 3 4 4 4 4 4 5 5 6 6 7 7 7 7 6 6 6 6 6 6 7 8 6 6 5 6 7 7 6 7 5 8 11 12 12 12 11 11 11 11
2 3 3 4 4 4 4 4 5 5 6 6 6 6 6 6 6 7 6 7 7 7 7 7 7 6 5 5 5 5 6 5 6 6 5 6 8 12 13 13 12 12 11
3 3 3 3 3 3 3 5 6 6 6 6 6 6 5 4 5 6 6 7 7 6 6 6 6 6 5 5 5 5 6 6 6 5 5 6 5 7 8 11 12 12 12
3 3 3 3 3 3 3 4 6 6 6 6 5 5 5 4 3 4 6 7 8 8 7 7 7 7 6 6 5 6 6 6 6 4 5 6 6 6 7 7 8 10 12
3 3 3 3 3 3 3 4 6 6 6 5 5 5 5 5 5 6 5 6 6 6 7 8 9 9 8 7 7 8 6 7 7 5 5 7 6 6 6 5 6 10 11
2 3 3 3 3 3 3 4 6 5 4 4 4 4 5 6 6 7 8 7 7 6 5 6 7 9 9 7 7 8 8 8 8 6 5 6 6 6 6 5 7 9 11
2 2 3 3 3 3 4 4 7 5 3 3 3 3 4 5 7 8 8 7 8 7 5 5 7 9 9 9 8 7 7 7 7 6 4 5 6 6 6 6 5 10 11
2 2 2 3 3 4 4 5 7 4 4 4 3 2 4 5 6 7 7 7 8 8 9 8 6 6 7 6 7 6 6 6 6 6 4 4 5 5 5 5 4 4 6
Wind_Direction
217 212 226 245 255 259 246 253 261 262 265 261 263 264 269 270 272 271 237 189 227 249 256 259 256 252 249 247 244 241 235 232 232 233 231 230 231 231 229 227 222 220 221
222 231 223 239 255 261 276 274 272 265 267 272 267 266 269 270 267 271 271 219 210 230 246 253 255 254 253 252 247 242 238 236 234 234 232 230 232 232 230 229 227 223 219
215 240 241 241 259 263 251 255 261 260 261 261 259 258 259 264 270 269 270 271 246 218 223 238 251 253 251 249 246 242 240 238 238 237 236 233 232 233 230 228 227 225 220
228 240 245 248 259 259 255 252 256 266 268 270 267 264 263 258 259 261 262 261 267 266 226 217 240 249 249 249 249 246 244 240 239 239 239 236 234 233 230 229 228 224 220
230 241 247 253 251 256 260 267 266 276 273 275 270 257 263 260 257 256 266 266 266 266 267 221 225 238 245 248 250 249 248 244 241 239 240 239 236 233 231 230 228 225 222
232 245 242 243 257 260 265 271 275 268 272 272 273 269 262 264 260 259 262 262 261 261 260 263 247 227 226 239 246 248 247 246 244 241 241 240 237 235 232 230 228 226 222
237 241 253 243 252 256 265 269 268 259 260 269 272 269 255 245 248 252 255 265 262 262 263 258 257 262 233 217 227 238 244 248 247 244 242 241 238 238 236 232 230 227 223
242 240 246 250 248 254 249 254 258 270 267 258 275 282 272 240 224 240 246 251 263 265 258 252 253 250 263 250 204 220 235 244 248 246 245 244 241 242 241 238 236 233 227
241 247 244 252 253 254 252 253 254 260 269 263 262 274 284 288 293 236 244 253 257 259 258 256 247 246 246 251 241 212 220 234 244 247 246 246 242 242 242 242 240 239 232
241 239 247 251 256 258 258 255 257 263 265 269 259 257 271 297 287 283 252 248 252 255 259 258 254 244 243 243 234 233 216 228 240 246 248 248 244 242 244 243 240 239 234
241 246 252 260 261 262 265 271 268 263 266 272 277 272 266 264 260 274 282 280 263 255 258 260 261 256 250 246 241 230 199 216 235 243 247 249 248 244 244 243 240 238 235
245 252 258 265 266 273 272 269 267 260 266 275 278 278 275 273 269 270 276 279 280 275 269 268 263 258 253 250 243 212 197 213 228 238 245 248 247 245 245 243 240 239 237
260 270 280 276 282 283 279 275 271 274 271 274 274 277 278 277 280 279 279 282 283 282 271 262 260 263 260 258 250 199 207 214 223 230 239 245 246 245 246 246 247 244 240
288 292 280 285 288 286 283 285 283 281 279 276 278 280 277 276 275 272 277 285 285 283 275 277 273 265 270 266 263 225 229 207 216 226 232 238 241 242 243 245 248 249 244
295 294 291 288 289 287 286 283 283 283 281 274 277 279 279 280 276 276 273 272 276 283 283 281 277 275 277 272 261 256 255 215 212 224 230 233 237 239 241 242 242 242 241
305 290 283 281 286 291 286 281 285 289 285 281 283 287 288 287 284 274 272 271 269 273 280 286 282 279 284 284 257 263 258 225 220 223 226 228 231 234 237 238 237 237 238
290 282 284 284 287 290 288 286 293 293 288 293 295 293 290 293 290 284 276 276 273 271 276 280 279 277 272 275 276 271 264 256 239 210 214 222 227 231 233 235 234 234 234
293 298 298 292 290 291 288 288 292 294 295 297 298 296 294 292 286 282 284 284 283 279 276 281 282 278 269 266 266 269 270 264 263 212 206 216 224 227 230 232 233 233 233
306 309 304 292 292 294 293 291 294 296 298 300 300 297 295 294 291 292 290 289 287 282 277 275 277 277 273 271 276 276 275 275 271 241 209 211 219 224 227 229 229 229 230
307 307 301 299 298 298 302 304 306 304 301 302 299 295 295 297 296 299 293 291 292 291 283 277 278 280 276 275 277 280 280 273 273 275 269 246 222 218 223 225 226 226 226
305 303 299 302 303 301 328 327 314 306 302 302 302 303 300 299 301 298 302 307 301 294 293 289 285 286 289 297 289 289 289 288 279 268 276 265 246 239 225 219 221 226 226
312 309 311 312 314 332 8 329 309 303 301 303 309 312 303 286 307 283 283 287 290 292 302 298 294 298 298 296 300 291 291 289 291 284 280 278 267 260 251 240 214 212 220
322 317 318 320 319 350 347 316 309 298 300 309 317 318 318 345 335 331 312 279 275 261 264 285 295 298 299 301 299 289 283 282 286 290 283 279 271 262 259 247 198 201 210
334 331 335 334 333 5 9 332 320 290 305 313 319 330 331 336 0 339 322 319 313 308 289 279 289 290 293 298 289 282 281 278 273 261 250 267 269 267 262 249 199 206 213
342 340 345 348 349 13 20 349 323 304 319 324 335 354 344 341 14 342 321 320 318 317 297 278 278 277 277 271 272 283 285 286 285 278 259 262 267 271 265 252 216 203 214
339 336 3 356 1 10 29 3 333 320 336 331 342 358 56 8 357 339 325 327 327 328 321 311 292 272 269 258 233 257 284 287 290 288 284 274 268 271 270 257 250 227 218